Theta_e
321 320 321 326 329 327 327 326 325 325 324 326 327 330 334 336 339 344 336 344 345 344 345 340 335 332 332 331 330 328 326 328 335 333 338 336 338 341 338 331 336 334 332 327 332 332 335 334 332
322 321 320 324 327 326 325 325 326 325 323 323 324 327 333 335 338 344 341 342 345 345 348 342 336 333 332 330 328 327 326 325 330 332 336 338 340 340 333 332 329 336 335 333 323 321 329 328 327
321 321 318 320 323 325 323 324 324 323 323 323 324 326 329 332 340 344 340 341 346 346 346 344 336 335 334 329 326 322 320 324 328 332 336 339 340 336 324 329 333 332 330 330 323 317 318 318 315
320 320 318 321 318 319 320 322 323 323 322 322 322 325 329 338 340 345 337 341 346 346 346 343 337 336 333 326 321 320 327 331 332 336 337 339 339 330 317 332 334 332 327 323 317 315 314 314 314
319 318 319 318 315 315 317 319 322 322 322 322 321 323 325 334 333 332 338 342 346 346 347 344 337 335 330 323 323 327 332 333 336 336 339 338 334 321 316 333 331 328 324 317 315 314 314 315 316
316 315 318 318 316 315 315 316 322 322 321 321 321 321 323 336 333 332 337 344 344 346 346 343 338 333 326 321 337 338 335 335 336 338 340 338 331 312 313 331 329 325 319 317 316 315 316 317 318
314 316 315 315 314 314 315 314 320 321 322 323 321 322 323 335 342 334 328 339 344 345 344 342 338 330 324 331 340 341 339 338 339 341 340 336 322 311 315 330 327 322 318 318 317 317 318 319 319
313 313 314 314 314 314 314 314 314 318 323 322 322 324 324 334 343 335 328 330 343 343 343 341 340 329 325 335 340 341 341 341 340 340 339 332 312 312 324 329 325 321 319 319 319 320 320 320 320
310 313 312 311 311 312 313 314 314 315 318 322 323 325 325 326 340 341 331 328 342 344 342 340 339 336 334 333 339 341 341 340 339 339 335 318 311 316 329 332 324 321 321 320 321 322 321 322 321
310 311 310 310 310 311 311 314 315 316 315 318 322 322 324 328 336 341 339 328 337 343 342 340 339 336 334 335 337 341 341 339 338 336 330 321 325 331 335 332 327 322 322 321 321 321 322 323 323
309 311 309 309 308 309 310 312 313 315 316 317 319 322 325 325 337 341 342 335 336 341 342 340 339 337 334 332 336 339 341 340 336 334 328 329 331 331 332 336 335 324 323 322 322 322 323 323 327
308 307 308 308 308 308 310 310 311 314 315 316 317 320 323 323 324 333 341 341 340 339 340 339 337 337 332 330 330 334 339 338 333 331 329 328 331 332 332 336 334 326 329 323 321 323 322 322 323
307 307 306 306 308 308 308 309 311 312 314 316 317 318 321 321 322 324 333 338 332 329 340 338 335 335 332 330 329 329 330 330 329 328 328 326 325 330 331 331 331 330 326 321 320 321 320 322 323
306 306 307 307 308 308 309 310 309 310 313 317 318 318 318 319 320 319 323 335 333 332 339 338 335 333 335 331 330 327 327 328 328 327 329 323 328 330 330 329 328 325 321 320 320 320 320 320 324
306 306 306 306 307 309 309 311 311 308 311 314 317 318 317 318 318 320 322 331 334 336 337 337 335 333 334 332 330 328 321 323 326 324 327 329 329 326 322 321 321 321 320 319 319 319 321 326 325
305 305 307 305 308 308 309 312 310 309 310 312 315 318 317 318 317 321 324 324 335 334 330 337 336 334 334 327 332 323 316 314 319 322 323 324 323 320 320 320 319 319 319 318 317 319 323 330 329
304 306 305 305 307 309 310 311 311 312 311 311 315 317 316 317 316 319 325 325 329 328 327 336 336 336 335 330 332 334 329 320 315 317 318 318 318 319 319 319 319 317 318 320 322 323 328 329 329
304 305 306 306 307 310 311 311 312 314 315 316 317 317 315 315 316 319 328 325 331 328 331 337 336 337 336 333 332 334 336 333 327 319 316 316 317 317 317 317 319 321 325 326 326 326 329 330 330
304 305 306 305 306 308 311 312 312 315 316 316 317 315 314 315 315 318 327 326 329 329 333 337 338 337 337 334 334 333 332 331 333 331 329 324 322 322 323 325 328 329 329 329 330 331 331 330 329
305 305 306 306 308 309 311 313 312 313 315 315 315 314 314 315 315 317 325 330 323 332 333 331 336 338 336 336 335 335 335 332 327 328 328 327 327 328 327 327 327 327 328 330 330 331 331 330 328
306 307 307 308 310 310 313 313 313 314 313 313 314 314 314 314 316 317 323 331 326 331 333 335 336 335 337 337 334 335 335 331 324 324 323 323 321 323 326 327 328 327 328 329 329 330 331 330 328
308 308 310 312 311 316 313 316 314 313 314 315 315 316 316 316 316 318 321 332 331 332 335 336 337 339 337 337 336 334 335 332 322 325 322 322 326 327 327 327 328 328 328 329 329 330 330 329 328
311 307 309 313 313 316 315 319 316 315 317 316 316 317 317 316 316 318 320 331 329 332 332 335 335 335 339 334 336 335 336 333 330 328 326 330 331 331 330 329 329 329 329 329 329 328 325 325 327
307 310 312 312 314 320 317 318 320 319 317 318 316 316 316 318 317 318 324 334 331 331 326 330 333 336 335 336 335 335 335 335 334 331 331 333 332 331 331 331 331 330 330 329 327 326 324 325 327
308 313 316 318 320 320 318 315 313 312 315 316 317 315 317 317 318 317 322 330 332 330 327 326 327 327 327 331 333 333 334 332 330 331 330 332 332 330 328 328 330 331 330 325 328 327 327 329 329
309 312 316 317 320 320 316 317 312 310 309 311 316 314 315 316 316 315 321 328 330 330 330 328 328 327 326 326 327 328 329 330 330 329 329 329 330 327 327 327 329 327 329 329 329 328 328 327 327
311 314 312 315 312 317 316 313 313 311 312 311 315 313 315 317 314 314 318 326 328 331 331 331 330 329 329 328 328 327 327 327 328 326 326 325 328 327 327 325 327 330 330 328 325 325 323 324 324
311 310 316 315 318 320 315 317 314 312 311 311 315 313 315 316 313 314 317 319 328 328 328 325 328 330 329 329 328 324 324 326 326 327 324 326 323 324 326 329 329 328 325 324 322 320 321 322 322
312 313 313 312 312 318 318 317 309 311 311 311 313 314 314 315 314 313 314 320 321 327 326 325 327 328 328 327 326 326 325 325 324 325 328 324 327 327 328 329 324 322 321 320 320 321 321 321 320
310 312 312 317 315 312 316 315 309 310 311 311 310 312 313 314 315 314 314 315 324 325 326 326 326 326 326 326 327 327 326 327 327 327 327 327 327 326 325 322 321 320 320 320 318 316 313 312 311
Wind_Speed
6 6 5 5 8 9 25 25 18 18 11 21 13 12 14 21 10 2 1 17 24 32 32 32 30 28 27 26 24 23 23 23 22 21 22 20 20 19 18 19 18 24 18 20 22 23 22 21 21
5 5 5 7 10 19 21 21 19 18 16 4 19 18 11 17 5 1 7 14 25 30 31 31 31 29 27 25 23 23 23 24 24 23 22 21 20 20 18 18 21 23 22 19 20 22 22 21 21
5 6 9 5 15 26 21 20 18 20 20 7 6 18 20 16 6 5 2 17 28 30 30 31 31 29 25 23 23 23 24 25 26 25 24 22 21 20 18 20 25 22 22 20 20 21 20 20 19
7 6 7 10 25 21 28 20 15 20 32 17 11 9 18 10 8 4 1 19 31 30 28 33 32 28 25 23 23 24 26 27 27 27 26 23 22 18 21 23 25 24 22 21 21 21 20 19 19
9 6 11 17 27 25 20 23 27 18 23 27 25 19 19 16 19 17 1 17 30 31 30 31 32 28 26 25 26 27 28 30 30 28 27 23 21 18 23 24 25 24 23 22 22 21 20 20 19
9 8 12 19 25 22 19 28 23 27 29 17 21 21 19 13 22 30 13 16 34 32 31 31 31 28 28 27 28 29 31 31 30 29 25 24 19 21 27 25 26 25 24 23 22 20 19 19 18
14 11 19 24 24 23 20 22 22 27 27 28 14 21 23 13 20 31 39 17 32 31 31 33 32 29 29 28 29 30 30 30 30 27 26 21 19 26 28 27 26 25 25 23 22 20 19 18 17
12 7 20 20 21 27 21 23 31 32 31 26 17 10 20 14 19 30 38 34 31 37 32 33 29 32 32 30 30 31 31 31 27 25 25 20 23 29 29 27 26 24 24 23 21 20 18 16 15
11 10 14 21 24 24 18 21 28 30 28 29 21 17 15 17 18 28 42 34 33 39 37 33 29 28 30 32 32 33 33 31 26 26 23 22 28 31 28 25 25 24 23 21 19 18 16 14 13
13 13 21 20 20 20 24 13 20 22 32 34 28 26 17 16 23 30 40 39 36 42 39 34 31 30 29 30 35 34 33 29 27 26 23 25 26 25 22 26 24 25 22 19 18 16 15 13 11
10 19 19 23 21 20 25 25 25 23 20 29 31 31 20 11 18 30 37 42 53 47 43 34 30 28 29 28 35 35 33 28 26 23 25 23 24 26 25 27 23 23 21 19 16 15 13 11 9
14 24 22 26 24 24 23 27 28 27 26 27 30 36 28 16 15 16 31 42 46 39 43 37 32 29 27 28 29 29 32 29 23 24 26 28 28 26 24 27 24 22 18 17 16 13 12 11 9
18 19 23 24 24 26 26 30 28 30 28 24 29 30 31 23 16 21 18 38 39 47 48 38 35 30 28 28 27 26 26 25 24 27 27 31 32 27 25 24 21 20 19 18 15 13 11 9 8
15 14 20 21 25 25 24 26 28 37 24 21 23 28 39 28 20 29 33 34 45 42 43 39 35 30 28 29 28 26 25 24 24 26 26 31 27 25 24 24 22 21 19 17 14 12 10 9 6
17 17 18 22 21 22 18 25 28 37 34 24 21 26 43 37 24 31 34 32 49 39 48 39 36 34 30 35 28 28 29 28 26 27 26 24 25 27 27 26 24 22 20 16 14 12 10 7 6
13 12 15 15 12 23 20 25 25 30 32 30 24 25 31 40 27 30 33 27 47 39 46 38 40 39 33 34 33 30 30 29 28 27 27 28 27 28 27 25 24 21 18 16 14 12 10 7 5
7 13 17 16 14 14 21 17 19 15 24 30 27 24 19 26 23 29 25 24 40 43 44 47 44 41 36 34 32 29 28 27 27 27 27 29 28 27 25 23 22 20 18 16 13 12 10 8 6
11 10 15 15 7 10 16 19 7 14 16 18 22 17 14 13 15 21 14 27 40 44 59 55 47 45 39 37 35 32 28 26 25 27 27 28 27 27 25 22 21 19 17 14 13 12 10 8 6
14 17 22 22 20 13 15 18 15 9 10 13 18 11 11 14 15 20 12 37 33 50 54 49 52 45 40 40 37 34 32 29 25 22 24 27 26 26 25 21 20 17 14 13 12 11 9 8 6
19 20 23 23 23 17 15 19 17 13 12 15 16 16 14 15 17 18 15 26 34 52 51 48 42 45 40 40 35 33 33 28 28 29 29 28 28 26 23 20 18 17 16 13 11 10 9 9 7
19 19 21 21 8 13 12 12 14 8 10 14 15 14 17 20 18 18 16 29 29 38 43 44 43 39 43 43 36 35 32 30 31 32 30 30 27 24 22 19 17 16 16 15 15 13 12 10 12
19 7 14 16 10 5 16 6 11 10 10 14 16 15 10 14 15 16 20 30 35 36 47 38 39 34 37 34 34 36 37 35 35 33 30 27 26 24 22 20 19 19 19 17 16 14 12 14 16
6 6 11 13 8 5 12 3 4 12 9 10 8 7 4 12 12 14 20 28 37 38 28 27 27 27 22 29 35 36 36 35 33 33 30 28 28 25 24 23 22 21 19 16 11 14 13 18 20
11 7 5 4 2 5 3 2 3 1 2 3 4 3 3 8 7 11 18 26 36 36 35 22 20 28 22 34 34 35 37 37 33 32 31 28 25 25 21 22 20 20 17 17 14 21 21 17 18
3 6 2 2 3 5 5 9 7 8 2 3 3 13 12 16 6 12 21 32 29 36 34 27 31 20 16 26 23 31 36 32 24 24 26 25 24 19 19 12 13 14 13 17 19 16 15 17 17
3 5 4 4 4 3 5 5 4 10 10 4 4 9 14 15 6 5 19 25 31 31 30 31 33 33 28 22 20 25 22 14 29 29 24 22 21 17 19 16 18 19 22 21 17 13 12 13 13
3 3 4 2 1 2 4 4 6 17 16 11 10 7 8 9 7 8 24 22 26 29 26 24 19 20 26 28 30 16 14 31 33 28 28 33 23 24 24 24 29 25 20 19 15 13 14 14 13
2 3 0 1 3 4 4 6 9 19 16 14 10 3 13 13 7 19 24 20 23 23 22 18 17 24 24 26 23 17 19 27 27 33 27 26 23 27 29 30 30 24 20 19 16 14 13 13 13
4 2 2 1 3 3 3 5 10 10 11 14 8 12 16 23 24 19 26 19 18 24 25 22 21 26 25 27 24 24 25 27 30 34 28 27 25 27 29 28 23 21 20 17 16 15 15 14 13
4 7 4 3 4 5 6 5 10 11 15 14 14 10 16 19 23 18 20 19 16 18 23 24 22 23 23 25 24 24 23 23 25 25 28 28 27 27 27 24 21 20 19 18 16 14 13 12 12
Wind_Direction
234 238 221 201 226 232 238 232 224 222 229 232 235 226 241 222 203 243 163 177 169 170 172 177 177 175 174 177 178 180 179 179 176 173 168 164 158 152 147 141 148 131 130 125 119 122 119 117 115
219 211 200 226 238 233 233 235 204 232 229 238 233 232 238 233 246 271 128 168 173 171 173 173 180 177 177 178 180 182 182 179 175 172 172 164 162 151 147 141 134 138 137 132 124 123 122 119 117
196 192 215 227 233 237 241 215 234 225 231 235 244 226 231 235 231 199 202 169 167 173 172 179 180 180 181 181 181 182 179 175 172 171 169 165 162 157 148 147 139 145 145 140 130 127 126 124 119
190 200 242 238 238 243 246 247 201 231 239 231 230 249 220 210 169 190 142 171 170 171 173 184 182 181 184 183 179 174 168 169 170 169 167 169 162 156 151 148 142 147 142 138 133 129 126 123 118
200 221 238 238 249 254 262 240 236 229 238 243 227 245 235 226 216 222 324 178 174 172 178 184 183 182 185 181 173 166 164 168 168 168 169 172 160 157 152 145 145 145 142 138 133 129 126 121 117
204 233 237 243 249 250 248 253 225 239 246 247 258 235 250 229 222 204 247 193 181 176 181 181 182 183 183 178 171 169 169 170 170 169 167 164 161 157 153 147 147 145 143 139 133 130 127 122 118
231 229 246 255 260 257 248 253 239 246 238 237 249 251 241 224 203 206 218 222 192 181 183 182 181 182 181 174 173 173 171 171 169 171 169 165 163 159 154 149 151 148 145 141 135 131 129 125 120
234 256 255 252 254 258 255 243 241 240 247 243 236 240 235 257 209 206 205 222 206 192 186 183 175 178 177 174 175 173 171 168 169 180 171 168 163 159 153 153 154 152 149 145 141 137 131 126 119
225 242 246 247 248 252 258 252 245 245 253 243 233 249 267 307 220 187 195 202 207 193 190 178 173 173 171 176 178 175 171 172 175 183 170 165 162 161 156 158 157 157 154 150 146 141 136 131 125
221 237 248 252 259 258 257 251 273 267 239 241 239 251 272 305 223 195 188 204 212 192 189 179 173 174 172 174 179 177 177 174 182 181 172 161 162 164 159 162 163 159 156 153 152 149 144 137 132
229 243 254 258 263 267 267 266 263 267 257 249 236 238 264 308 225 205 194 190 202 203 185 180 172 170 169 172 176 181 176 175 187 177 168 165 162 167 172 165 165 161 163 162 160 156 151 147 143
254 251 262 271 270 268 259 261 258 257 260 253 245 228 249 278 289 249 207 187 194 201 185 180 175 172 173 169 172 180 182 183 179 177 173 170 169 166 173 168 170 171 165 170 168 169 166 159 152
251 265 269 273 273 263 262 257 256 256 254 267 249 247 247 264 291 291 263 208 198 212 185 182 182 175 176 171 170 173 177 179 179 175 177 175 174 171 170 175 172 174 174 176 178 177 176 172 171
276 275 280 280 273 263 257 256 247 251 259 258 249 247 247 256 289 301 276 224 203 198 185 184 186 178 179 175 171 172 175 174 176 177 178 181 177 176 174 175 177 179 179 181 183 185 182 182 183
268 276 275 261 259 244 253 250 242 240 240 265 260 244 236 241 282 304 295 244 188 178 183 187 187 186 183 186 175 173 175 176 177 181 182 180 182 181 179 179 182 183 185 187 192 196 193 192 194
270 283 271 269 239 238 223 252 239 243 234 244 253 248 250 235 269 299 299 252 170 183 176 196 193 190 186 187 185 185 180 181 182 183 186 186 186 185 183 183 184 187 191 194 197 200 198 196 214
222 268 263 269 249 237 210 246 240 223 226 238 240 244 254 239 270 293 298 249 191 167 173 202 197 191 189 188 190 188 186 186 187 189 189 189 188 187 188 188 192 194 196 198 201 201 195 204 220
281 257 266 265 275 260 219 238 210 210 214 228 230 228 232 255 280 298 285 231 208 196 186 201 193 193 190 187 188 189 189 190 193 193 193 193 192 193 193 195 198 199 201 201 199 197 195 205 228
273 273 269 269 273 273 248 226 211 212 208 224 226 226 247 266 310 307 261 210 226 199 194 192 189 190 189 190 190 190 193 196 197 196 195 197 198 198 196 198 200 201 201 200 196 196 202 222 240
263 272 268 277 264 233 232 230 230 210 233 233 229 225 252 274 303 297 253 197 239 194 196 194 190 187 195 195 192 196 194 197 203 205 204 204 203 203 202 200 208 210 206 208 207 210 215 229 238
259 256 262 264 297 200 200 225 206 202 241 249 226 224 231 255 283 286 248 209 214 198 199 196 192 196 202 200 193 195 197 202 196 201 203 207 205 203 201 204 204 203 208 210 211 216 218 227 234
272 256 259 245 243 188 194 189 204 207 215 230 220 212 202 240 257 257 249 209 204 215 201 190 185 191 195 199 199 203 203 203 200 199 199 195 197 199 202 205 207 210 213 216 215 215 216 215 225
257 320 283 275 193 148 208 213 126 188 219 242 227 236 249 253 270 236 241 212 206 198 199 177 189 197 198 209 213 208 208 208 207 201 194 193 199 201 205 207 212 215 210 208 182 172 233 236 246
272 275 248 227 236 127 61 265 84 210 199 167 136 324 317 328 296 234 211 188 198 197 193 204 200 180 187 205 213 217 216 210 207 206 201 201 206 205 213 213 213 221 214 210 246 261 236 248 231
306 301 303 345 20 69 337 63 41 25 294 277 355 23 360 2 298 217 185 180 179 182 180 204 222 230 220 212 198 212 215 213 199 204 202 205 198 199 218 247 248 239 227 240 247 241 224 226 235
333 345 347 9 11 60 32 56 31 23 20 302 145 18 3 5 6 214 165 169 180 181 185 195 205 211 226 231 222 240 247 249 211 197 197 206 208 227 228 240 239 244 236 232 224 208 206 216 219
339 18 327 309 202 55 28 35 90 16 33 48 96 15 336 3 348 196 124 144 160 174 178 187 198 199 202 201 209 202 210 246 238 200 219 234 239 230 230 237 233 232 214 200 203 202 206 209 214
338 282 281 347 29 60 51 51 14 359 11 42 117 26 360 1 359 68 91 120 139 142 152 147 195 192 188 189 185 180 194 198 214 214 240 204 212 209 220 222 222 196 190 195 199 203 214 222 229
337 12 4 6 0 47 94 60 1 360 18 52 81 38 15 8 17 41 69 91 139 154 158 156 175 180 175 171 166 165 164 174 171 180 186 189 199 210 202 193 181 188 191 197 209 215 219 222 229
318 360 2 326 74 42 77 55 10 34 46 60 68 77 19 10 9 32 61 73 104 144 152 160 168 168 170 173 177 177 174 182 192 189 193 195 186 179 178 181 185 191 198 203 205 206 210 217 225